ECHOSTAR 21 (42749 NORAD) Tracking and Keplerian Element Data

This shows tracking and keplerian element data for the satellite.

Feedback or suggestion? Click here.




ElementValue
Catalog42749
NameECHOSTAR 21
Epoch Orbit2571
Epoch Day160.06848021
Epoch Year2024
RAAN319.8754
Inclination2.5476
Eccentricity0.0002112
Argument of Perigee104.3777
Mean Anonmoly227.5895
Mean Motion1.00270645
Decay Rate6.5E-07
L11 42749U 17032A 24160.06848021 .00000065 00000+0 00000+0 0 9990
L22 42749 2.5476 319.8754 0002112 104.3777 227.5895 1.00270645 25712



Live tracking and technical data element details for ECHOSTAR 21 (NORAD 42749). ECHOSTAR 21 can be tracked NOW for your location showing map with azimuth and elevation plus other details from your city location.







IsCatalogInMostPopularTable: catalog: 42749, numindb: 684
Update: records affected: 1



GetName: 42749 ECHOSTAR 21

Hit Count: updated at: Fri, 14 Jun 2024 18:24:10 GMT